Starlink 11552

operational
NORAD ID: 62907 Int'l Des: 2025-027 Owner: SPXS Country: US Constellation: starlink
LEOCIRCULAR

Starlink 11552について

説明を読み込み中...

リアルタイム位置

3D地球を読み込み中...

次回通過

高度履歴

Altitude vs Time

uPlot chart will show altitude changes over time

軌道要素

1 62907U 25027A 26034.49952490 .00211858 00000-0 16053-2 0 9999
2 62907 42.9993 193.8661 0001827 268.0822 91.9837 15.70951467 57815
Epoch: Feb 3, 2026 • Age: 16 hours

現在のステータス

高度 355.0 km
速度 7.70 km/s
衛星直下点 1.88°N, 173.55°E
打ち上げ日 Feb 8, 2025
運用期間 0.9 years
タイプ internet

技術仕様

分類 Payload
質量 960.00 kg
乾燥質量 910.00 kg
総質量 960.00 kg
長さ 0.30 m
直径 4.10 m
スパン 29.00 m
形状 Box + pan
製造者 SPXS
バスタイプ Starlink V2MD
フェーズステータス In Orbit
所有者/国 SPXS/US

大規模コンステレーション

Loading constellations...